Weather History for KTBN - October, 2013

Change the Weather History Date:

Monday, October 14, 2013

  Actual Average Record
Temperature  
Mean Temperature 58 °F -  
Max Temperature 66 °F 67 °F 80 °F (1996)
Min Temperature 50 °F 48 °F 33 °F (2002)
Degree Days  
Heating Degree Days 7    
Growing Degree Days 8 (Base 50)    
Moisture  
Dew Point 51 °F    
Average Humidity 77    
Maximum Humidity 100    
Minimum Humidity 53    
Precipitation  
Precipitation 0.01 in - - ()
Sea Level Pressure  
Sea Level Pressure 30.16 in    
Wind  
Wind Speed 7 mph (ESE)    
Max Wind Speed 13 mph    
Max Gust Speed -    
Visibility 10 miles    
Events      
Averages and records for this station are not official NWS values.
T = Trace of Precipitation, MM = Missing Value Source: NWS Daily Summary

Daily Weather History Graph

Daily Weather History Graph

Search for Another Location

Airport or City:

Trip Planner

Search our weather history database for the weather conditions in past years. The results will help you decide how hot, cold, wet, or windy it might be!

Date:

Astronomy

Oct. 14, 2013 Rise Set
Actual Time 7:16 AM CDT 6:32 PM CDT
Civil Twilight 6:49 AM CDT 6:58 PM CDT
Nautical Twilight 6:19 AM CDT 7:28 PM CDT
Astronomical Twilight 5:48 AM CDT 7:59 PM CDT
Moon 3:57 PM CDT (10/14) 2:37 AM CDT (10/14)
Length of Visible Light 12h 08m
Length of Day
11h 15m
Waxing Gibbous, 79% of the Moon is Illuminated
Oct 14
Waxing Gibbous
Oct 18
Full
Oct 26
Last Quarter
Nov 3
New
Nov 9
First Quarter

Hourly Weather History & Observations

Time (CDT) Temp. Dew Point Humidity Pressure Visibility Wind Dir Wind Speed Gust Speed Precip Events Conditions
12:58 AM 53.4 °F 43.2 °F 68% 30.31 in 10.0 mi East 4.6 mph - N/A   Clear
1:58 AM 52.7 °F 42.6 °F 69% 30.32 in 10.0 mi ENE 3.5 mph - N/A   Clear
2:58 AM 51.8 °F 41.7 °F 68% 30.30 in 10.0 mi East 5.8 mph - N/A   Clear
3:58 AM 51.8 °F 41.0 °F 67% 30.28 in 10.0 mi East 5.8 mph - N/A   Clear
4:58 AM 51.8 °F 40.3 °F 65% 30.27 in 10.0 mi East 6.9 mph - N/A   Clear
5:58 AM 51.6 °F 40.3 °F 65% 30.27 in 10.0 mi East 6.9 mph - N/A   Clear
6:58 AM 50.9 °F 40.5 °F 67% 30.28 in 10.0 mi East 5.8 mph - N/A   Clear
7:58 AM 50.9 °F 40.8 °F 68% 30.27 in 10.0 mi ESE 6.9 mph - N/A   Clear
8:58 AM 53.2 °F 40.6 °F 62% 30.27 in 10.0 mi ESE 8.1 mph - N/A   Partly Cloudy
9:58 AM 56.1 °F 43.3 °F 62% 30.25 in 10.0 mi ESE 9.2 mph - N/A   Mostly Cloudy
10:58 AM 60.3 °F 45.0 °F 57% 30.24 in 10.0 mi SE 10.4 mph - N/A   Overcast
11:58 AM 62.4 °F 45.1 °F 53% 30.21 in 10.0 mi SE 10.4 mph - N/A   Overcast
12:58 PM 63.9 °F 47.3 °F 55% 30.19 in 10.0 mi SE 8.1 mph - N/A   Mostly Cloudy
1:58 PM 64.6 °F 50.7 °F 61% 30.16 in 10.0 mi SE 4.6 mph - N/A   Scattered Clouds
2:58 PM 66.2 °F 54.3 °F 65% 30.13 in 10.0 mi SE 6.9 mph - N/A   Scattered Clouds
3:58 PM 65.8 °F 56.1 °F 71% 30.12 in 10.0 mi SE 8.1 mph - N/A   Clear
4:58 PM 64.9 °F 57.0 °F 75% 30.09 in 10.0 mi ESE 5.8 mph - N/A   Partly Cloudy
5:58 PM 63.1 °F 56.7 °F 79% 30.09 in 10.0 mi ESE 10.4 mph - N/A   Clear
6:58 PM 62.1 °F 56.8 °F 83% 30.09 in 10.0 mi SE 10.4 mph - N/A   Clear
7:58 PM 61.5 °F 57.0 °F 85% 30.07 in 10.0 mi SE 9.2 mph - N/A   Clear
8:46 PM 60.8 °F 57.2 °F 88% 30.06 in 10.0 mi SE 9.2 mph - N/A   Light Drizzle
8:58 PM 61.3 °F 58.3 °F 90% 30.06 in 10.0 mi SE 11.5 mph - 0.00 in   Light Drizzle
9:28 PM 60.8 °F 59.0 °F 94% 30.06 in 10.0 mi SE 8.1 mph - N/A   Mostly Cloudy
9:30 PM 60.8 °F 59.0 °F 94% 30.06 in 10.0 mi SE 9.2 mph - N/A   Light Drizzle
9:37 PM 60.8 °F 59.0 °F 94% 30.06 in 10.0 mi SE 10.4 mph - N/A   Mostly Cloudy
9:49 PM 60.8 °F 59.0 °F 94% 30.07 in 10.0 mi SE 10.4 mph - N/A   Light Drizzle
9:58 PM 60.6 °F 59.7 °F 97% 30.07 in 10.0 mi SSE 9.2 mph - 0.00 in   Light Drizzle
10:34 PM 60.8 °F 60.8 °F 100% 30.05 in 10.0 mi SE 8.1 mph - N/A   Mostly Cloudy
10:58 PM 60.3 °F 60.3 °F 100% 30.04 in 10.0 mi ESE 12.7 mph - 0.01 in   Overcast
11:58 PM 60.1 °F 60.1 °F 100% 30.03 in 10.0 mi SE 10.4 mph - N/A   Overcast